Home   Weather   Chemnitz   Past weeks

Flag for Germany Past Weather in Chemnitz, Saxony, Germany — Yesterday and Last 2 Weeks

Now
57 °F

Clear.


Feels Like: 57 °F
Forecast: 61 / 80 °F
Wind: 2 mph from Southwest

Location: Dresden-Klotzsche

Current Time: Jun 27, 2017 at 2:19:03 am

Latest Report: Jun 27, 2017 at 1:50 am


Visibility: 10 mi

Pressure: 29.92 "Hg

Humidity: 88%

Dew Point: 54 °F

Location of ChemnitzLocation

Past Weather in Chemnitz — Graph

°F

Chemnitz Temperature Yesterday

Maximum temperature yesterday: 70 °F (at 9:50 am)
Minimum temperature yesterday: 59 °F (at 4:20 am)
Average temperature yesterday: 64 °F

High & Low Weather Summary for the Past Weeks

 TemperatureHumidityPressure
High88 °F (Jun 22, 2:20 pm)100% (Jun 16, 5:20 am)30.30 "Hg (Jun 16, 5:20 am)
Low52 °F (Jun 14, 3:50 am)28% (Jun 21, 6:20 pm)29.77 "Hg (Jun 22, 10:50 pm)
Average66 °F63%30.01 "Hg
* Reported Jun 12 1:20 am — Jun 27 1:20 am, Chemnitz. Weather by CustomWeather, © 2017

Note: Actual official high and low records may vary slightly from our data, if they occured in-between our weather recording intervals... More about our weather records

Advertising

Chemnitz Weather History for the Previous 24 Hours

Scroll right to see more
 ConditionsComfort  
Time TempWeatherWind HumidityBarometerVisibility
1:20 am
Tue, Jun 27
57 °FClear.3 mph88%29.92 "Hg10 mi
12:50 am59 °FPassing clouds.3 mph82%29.92 "HgN/A
12:20 am59 °FClear.2 mph82%29.92 "Hg10 mi
11:50 pm
Mon, Jun 26
61 °FClear.1 mph72%29.92 "Hg10 mi
11:20 pm61 °FClear.1 mph72%29.92 "Hg10 mi
10:50 pm63 °FPassing clouds.2 mph68%29.92 "HgN/A
10:20 pm63 °FPassing clouds.1 mph68%29.92 "HgN/A
9:50 pm63 °FPassing clouds.2 mph68%29.92 "HgN/A
9:20 pm64 °FBroken clouds.3 mph64%29.92 "HgN/A
8:50 pm64 °FSunny.2 mph64%29.92 "Hg10 mi
8:20 pm64 °FPartly sunny.3 mph64%29.92 "HgN/A
7:50 pm64 °FSunny.5 mph60%29.92 "Hg10 mi
7:20 pm66 °FBroken clouds.6 mph56%29.92 "HgN/A
6:50 pm66 °FPassing clouds.6 mph56%29.92 "HgN/A
6:20 pm66 °FBroken clouds.8 mph60%29.92 "HgN/A
5:50 pm66 °FBroken clouds.8 mph60%29.92 "HgN/A
5:20 pm66 °FBroken clouds.9 mph60%29.92 "HgN/A
4:50 pm66 °FBroken clouds.8 mph56%29.92 "HgN/A
4:20 pm66 °FBroken clouds.7 mph60%29.92 "HgN/A
3:50 pm66 °FBroken clouds.7 mph60%29.92 "HgN/A
3:20 pm66 °FBroken clouds.6 mph56%29.92 "HgN/A
2:50 pm64 °FBroken clouds.7 mph60%29.92 "HgN/A
2:20 pm64 °FPartly sunny.7 mph64%29.92 "HgN/A
1:50 pm63 °FPartly sunny.10 mph68%29.92 "HgN/A
1:20 pm64 °FPartly sunny.9 mph68%29.92 "HgN/A
12:50 pm63 °FPartly sunny.9 mph77%29.92 "HgN/A
12:20 pm63 °FBroken clouds.10 mph77%29.89 "HgN/A
11:50 am66 °FBroken clouds.13 mph64%29.89 "HgN/A
11:20 am68 °FPartly sunny.12 mph60%29.89 "HgN/A
10:50 am70 °FScattered clouds.16 mph57%29.86 "HgN/A
10:20 am70 °FPartly sunny.13 mph57%29.86 "HgN/A
9:50 am70 °FScattered clouds.18 mph57%29.86 "HgN/A
9:20 am68 °FScattered clouds.20 mph64%29.86 "HgN/A
8:50 am68 °FScattered clouds.14 mph64%29.86 "HgN/A
8:20 am66 °FScattered clouds.14 mph73%29.86 "HgN/A
7:50 am64 °FPartly sunny.7 mph78%29.86 "HgN/A
7:20 am63 °FPartly sunny.8 mph77%29.83 "HgN/A
6:50 am63 °FPartly sunny.9 mph83%29.83 "HgN/A
6:20 am63 °FBroken clouds.9 mph83%29.86 "HgN/A
5:50 am63 °FBroken clouds.9 mph88%29.83 "HgN/A
5:20 am61 °FPartly sunny.8 mph100%29.86 "HgN/A
4:50 am61 °FPassing clouds.6 mph94%29.86 "HgN/A
4:20 am59 °FPartly cloudy.6 mph94%29.86 "HgN/A
3:50 am61 °FPartly cloudy.5 mph94%29.86 "HgN/A
3:20 am61 °FClear.6 mph94%29.89 "Hg10 mi
2:50 am61 °FPartly cloudy.3 mph88%29.89 "HgN/A
2:20 am61 °FPassing clouds.5 mph94%29.89 "HgN/A
Weather by CustomWeather, © 2017

See weather overviewHow to use our weather pages